Location: Norton
(51.3000°N, 0.8167°E)
Time: 07:42:00
(UTC+00:00)

USA 305 - Visible Passes

Search period start: 22 June 2021 00:00
Search period end: 02 July 2021 00:00
Orbit: 567 x 573 km, 54.0° (Epoch: 07 May)

Date Brightness Start Highest point End Pass type
(mag) Time Alt. Az. Time Alt. Az. Time Alt. Az.
22 Jun 3.5 01:11:38 23° SSW 01:13:46 39° SE 01:17:45 10° ENE visible
22 Jun 3.1 02:49:17 10° WSW 02:53:33 76° NNW 02:57:49 10° ENE visible
22 Jun 5.0 23:36:03 13° ESE 23:36:03 13° ESE 23:37:27 10° ESE visible
23 Jun 3.1 01:12:05 21° SW 01:14:41 51° SSE 01:18:50 10° ENE visible
23 Jun 3.3 02:50:22 10° W 02:54:36 67° NNW 02:58:52 10° ENE visible
23 Jun 4.5 23:36:25 18° SE 23:36:25 18° SE 23:39:13 10° E visible
24 Jun 2.9 01:12:27 17° SW 01:15:39 67° SSE 01:19:52 10° ENE visible
24 Jun 3.4 02:51:27 10° W 02:55:41 62° N 02:59:54 10° ENE visible
24 Jun 4.0 23:36:40 24° SSE 23:37:06 25° SE 23:40:34 10° E visible
25 Jun 2.8 01:12:41 12° WSW 01:16:38 83° SSE 01:20:54 10° ENE visible
25 Jun 3.6 23:36:45 28° S 23:37:56 33° SE 23:41:46 10° ENE visible
26 Jun 2.9 01:13:21 10° WSW 01:17:38 82° NNW 01:21:54 10° ENE visible
26 Jun 3.5 02:53:36 10° WNW 02:57:49 59° N 03:02:02 10° E visible
26 Jun 3.2 23:36:37 24° SSW 23:38:48 44° SE 23:42:53 10° ENE visible
27 Jun 3.1 01:14:24 10° W 01:18:39 71° NNW 01:22:55 10° ENE visible
27 Jun 3.5 02:54:39 10° WNW 02:58:54 62° N 03:03:07 10° E visible
27 Jun 4.5 22:00:06 15° SE 22:00:28 15° SE 22:02:57 10° E visible
27 Jun 2.9 23:36:02 13° SW 23:39:43 58° SSE 23:43:55 10° ENE visible
28 Jun 3.3 01:15:27 10° W 01:19:42 64° N 01:23:56 10° ENE visible
28 Jun 3.3 02:55:41 10° WNW 02:59:56 68° N 03:04:11 10° E visible
28 Jun 4.2 21:58:36 13° S 22:01:14 21° SE 22:04:27 10° E visible
28 Jun 2.8 23:36:25 10° WSW 23:40:40 74° SSE 23:44:55 10° ENE visible
29 Jun 3.5 01:16:32 10° W 01:20:45 60° N 01:24:58 10° ENE visible
29 Jun 3.1 02:56:42 10° WNW 03:00:57 77° NNE 03:05:13 10° ESE visible
29 Jun 3.7 21:58:22 10° SSW 22:02:02 28° SE 22:05:42 10° E visible
29 Jun 2.8 23:37:21 10° WSW 23:41:37 90° WNW 23:45:55 10° ENE visible
30 Jun 3.5 01:17:34 10° W 01:21:48 59° N 01:26:01 10° E visible
30 Jun 3.4 21:58:55 10° SSW 22:02:52 38° SE 22:06:50 10° ENE visible
30 Jun 3.0 23:38:21 10° WSW 23:42:38 77° NNW 23:46:54 10° ENE visible
01 Jul 3.5 01:18:37 10° WNW 01:22:51 60° N 01:27:04 10° E visible
01 Jul 3.0 21:59:37 10° SW 22:03:44 50° SSE 22:07:52 10° ENE visible
01 Jul 3.2 23:39:24 10° W 23:43:38 68° NNW 23:47:54 10° ENE visible
